| time (UTC) | temp F | wind direction | speed MPH | gust MPH | rain 1hr in | rain 24hr in | rain mn in | humidity % | barometer mb |
| 20260904200537 | 0 | 0.0 | 0.0 | 0.00 | 0.31 | 0.00 | |||
| 20260904195457 | 75 | 0.0 | 0.0 | 0.00 | 0.31 | 0.00 | 99 | 680.1 | |
| 20260904194458 | 75 | 235 | 4.0 | 5.0 | 0.00 | 0.31 | 0.00 | 99 | 680.1 |
| 20260904193614 | 75 | 252 | 1.0 | 2.0 | 0.00 | 0.31 | 0.00 | 99 | 680.1 |
| 20260904192458 | 75 | 237 | 2.0 | 4.0 | 0.00 | 0.31 | 0.00 | 99 | 680.1 |
| 20260904191531 | 75 | 219 | 3.0 | 3.0 | 0.00 | 0.31 | 0.00 | 99 | 680.1 |
| 20260904190649 | 75 | 215 | 2.0 | 2.0 | 0.00 | 0.31 | 0.00 | 99 | 680.0 |
| 20260904185545 | 75 | 254 | 2.0 | 5.0 | 0.00 | 0.31 | 0.00 | 99 | 680.1 |
| 20260904184459 | 75 | 0.0 | 0.0 | 0.00 | 0.31 | 0.00 | 99 | 680.1 | |
| 20260904183554 | 0 | 221 | 1.0 | 2.0 | 0.00 | 0.31 | 0.00 | ||
| 20260904182748 | 0 | 215 | 4.0 | 4.0 | 0.00 | 0.31 | 0.00 | ||
| 20260904181543 | 74 | 203 | 2.0 | 4.0 | 0.00 | 0.31 | 0.00 | 99 | 680.1 |
| 20260904180548 | 75 | 240 | 0.0 | 1.0 | 0.00 | 0.31 | 0.00 | 99 | 680.0 |
| 20260904175715 | 74 | 196 | 1.0 | 1.0 | 0.00 | 0.31 | 0.00 | 99 | 680.0 |
| 20260904174519 | 74 | 14 | 1.0 | 2.0 | 0.00 | 0.31 | 0.00 | 99 | 680.0 |
| 20260904173530 | 74 | 0.0 | 0.0 | 0.00 | 0.31 | 0.00 | 99 | 680.0 | |
| 20260904172739 | 73 | 180 | 1.0 | 2.0 | 0.00 | 0.31 | 0.00 | 99 | 680.0 |
| 20260904171516 | 72 | 203 | 1.0 | 2.0 | 0.00 | 0.31 | 0.00 | 99 | 680.0 |
| 20260904170716 | 71 | 144 | 1.0 | 2.0 | 0.00 | 0.31 | 0.00 | 99 | 680.0 |
| 20260904165553 | 71 | 24 | 2.0 | 3.0 | 0.00 | 0.31 | 0.00 | 99 | 680.0 |
| 20260904164616 | 70 | 4 | 1.0 | 3.0 | 0.00 | 0.31 | 0.00 | 99 | 679.9 |
| 20260904163500 | 70 | 0 | 0.0 | 0.0 | 0.00 | 0.31 | 0.00 | 99 | 679.9 |
| 20260904162530 | 70 | 71 | 2.0 | 3.0 | 0.00 | 0.31 | 0.00 | 99 | 680.0 |
| 20260904161500 | 0 | 41 | 2.0 | 3.0 | 0.00 | 0.31 | 0.00 | ||
| 20260904160550 | 70 | 55 | 2.0 | 3.0 | 0.00 | 0.31 | 0.00 | 99 | 679.9 |
| 20260904155500 | 70 | 49 | 2.0 | 2.0 | 0.00 | 0.31 | 0.00 | 99 | 679.9 |
| 20260904154524 | 0 | 43 | 1.0 | 1.0 | 0.00 | 0.31 | 0.00 | ||
| 20260904153841 | 69 | 42 | 2.0 | 2.0 | 0.00 | 0.31 | 0.00 | 99 | 679.9 |
| 20260904152533 | 69 | 4 | 2.0 | 2.0 | 0.00 | 0.31 | 0.00 | 99 | 679.9 |
| 20260904151518 | 69 | 55 | 2.0 | 2.0 | 0.00 | 0.31 | 0.00 | 99 | 679.9 |
| 20260904150516 | 69 | 20 | 1.0 | 1.0 | 0.00 | 0.31 | 0.00 | 99 | 679.9 |
| 20260904145502 | 68 | 23 | 1.0 | 3.0 | 0.00 | 0.31 | 0.00 | 99 | 679.9 |
| 20260904144517 | 68 | 4 | 1.0 | 2.0 | 0.00 | 0.31 | 0.00 | 99 | 679.9 |
| 20260904143517 | 68 | 4 | 0.0 | 2.0 | 0.00 | 0.31 | 0.00 | 99 | 679.9 |
| 20260904142501 | 68 | 27 | 0.0 | 1.0 | 0.00 | 0.31 | 0.00 | 99 | 679.9 |
| 20260904141502 | 68 | 0.0 | 0.0 | 0.00 | 0.31 | 0.00 | 99 | 679.9 | |
| 20260904140517 | 68 | 230 | 0.0 | 1.0 | 0.00 | 0.31 | 0.00 | 99 | 679.9 |
| 20260904135602 | 67 | 3 | 1.0 | 3.0 | 0.00 | 0.30 | 0.00 | 99 | 679.9 |
| 20260904134539 | 67 | 336 | 1.0 | 1.0 | 0.00 | 0.30 | 0.00 | 99 | 679.9 |
| 20260904133502 | 67 | 304 | 1.0 | 1.0 | 0.00 | 0.30 | 0.00 | 99 | 679.9 |
| 20260904132518 | 67 | 326 | 0.0 | 1.0 | 0.00 | 0.30 | 0.00 | 99 | 679.9 |
| 20260904131538 | 67 | 345 | 1.0 | 2.0 | 0.00 | 0.30 | 0.00 | 99 | 679.9 |
| 20260904130503 | 67 | 6 | 0.0 | 1.0 | 0.00 | 0.30 | 0.00 | 99 | 679.9 |
| 20260904125519 | 66 | 312 | 0.0 | 1.0 | 0.00 | 0.30 | 0.00 | 99 | 679.9 |
| 20260904124518 | 66 | 276 | 0.0 | 1.0 | 0.00 | 0.30 | 0.00 | 99 | 679.9 |
| 20260904123544 | 66 | 0.0 | 0.0 | 0.00 | 0.30 | 0.00 | 99 | 679.9 | |
| 20260904122503 | 66 | 330 | 0.0 | 1.0 | 0.00 | 0.30 | 0.00 | 99 | 679.9 |
| 20260904121518 | 65 | 354 | 1.0 | 2.0 | 0.00 | 0.30 | 0.00 | 99 | 679.9 |
| 20260904120620 | 65 | 335 | 0.0 | 1.0 | 0.00 | 0.30 | 0.00 | 99 | 679.8 |
| 20260904115503 | 65 | 0.0 | 0.0 | 0.00 | 0.30 | 0.00 | 99 | 679.8 | |
| 20260904114519 | 65 | 347 | 0.0 | 1.0 | 0.00 | 0.30 | 0.00 | 99 | 679.8 |
| 20260904113559 | 65 | 0.0 | 0.0 | 0.00 | 0.30 | 0.00 | 99 | 679.8 | |
| 20260904112504 | 64 | 0.0 | 0.0 | 0.00 | 0.30 | 0.00 | 99 | 679.8 | |
| 20260904111519 | 64 | 0.0 | 0.0 | 0.00 | 0.30 | 0.00 | 99 | 679.8 | |
| 20260904110520 | 64 | 0.0 | 0.0 | 0.00 | 0.30 | 0.00 | 99 | 679.8 | |
| 20260904105519 | 64 | 8 | 0.0 | 1.0 | 0.00 | 0.30 | 0.00 | 99 | 679.8 |
| 20260904104539 | 64 | 0.0 | 0.0 | 0.00 | 0.30 | 0.00 | 99 | 679.8 | |
| 20260904103540 | 65 | 0.0 | 0.0 | 0.00 | 0.30 | 0.00 | 99 | 679.8 | |
| 20260904102504 | 65 | 0.0 | 0.0 | 0.00 | 0.30 | 0.00 | 99 | 679.8 | |
| 20260904101535 | 65 | 266 | 0.0 | 2.0 | 0.00 | 0.30 | 0.00 | 99 | 679.8 |
| 20260904100520 | 65 | 315 | 0.0 | 1.0 | 0.00 | 0.30 | 0.00 | 99 | 679.8 |
| 20260904095526 | 65 | 218 | 1.0 | 2.0 | 0.00 | 0.30 | 0.00 | 99 | 679.8 |
| 20260904094506 | 65 | 250 | 1.0 | 1.0 | 0.00 | 0.30 | 0.00 | 99 | 679.8 |
| 20260904093521 | 65 | 226 | 0.0 | 1.0 | 0.00 | 0.30 | 0.00 | 99 | 679.8 |
| 20260904092521 | 65 | 247 | 0.0 | 1.0 | 0.00 | 0.30 | 0.00 | 99 | 679.8 |
| 20260904091505 | 65 | 269 | 0.0 | 1.0 | 0.00 | 0.30 | 0.00 | 99 | 679.8 |
| 20260904090522 | 65 | 217 | 2.0 | 3.0 | 0.00 | 0.30 | 0.00 | 99 | 679.8 |
| 20260904085506 | 65 | 219 | 1.0 | 2.0 | 0.00 | 0.30 | 0.00 | 99 | 679.9 |
| 20260904084506 | 65 | 0.0 | 0.0 | 0.00 | 0.30 | 0.00 | 99 | 679.9 | |
| 20260904083521 | 65 | 0.0 | 0.0 | 0.00 | 0.30 | 0.00 | 99 | 679.9 | |
| 20260904082506 | 65 | 0.0 | 0.0 | 0.00 | 0.30 | 0.00 | 99 | 679.8 | |
| 20260904081530 | 65 | 319 | 0.0 | 1.0 | 0.00 | 0.30 | 0.00 | 99 | 679.9 |
| 20260904080527 | 65 | 0.0 | 0.0 | 0.00 | 0.30 | 0.00 | 99 | 679.8 | |
| 20260904075507 | 66 | 0.0 | 0.0 | 0.00 | 0.30 | 0.00 | 99 | 679.9 | |
| 20260904074542 | 66 | 0.0 | 0.0 | 0.00 | 0.30 | 0.00 | 99 | 679.9 | |
| 20260904073522 | 66 | 215 | 1.0 | 1.0 | 0.00 | 0.30 | 0.00 | 99 | 679.9 |
| 20260904072524 | 66 | 0.0 | 0.0 | 0.00 | 0.30 | 0.00 | 99 | 679.9 | |
| 20260904071522 | 66 | 142 | 1.0 | 2.0 | 0.00 | 0.30 | 0.00 | 99 | 679.9 |
| 20260904070538 | 66 | 127 | 1.0 | 2.0 | 0.00 | 0.30 | 0.00 | 99 | 679.9 |
| 20260904065523 | 66 | 132 | 2.0 | 4.0 | 0.00 | 0.30 | 0.00 | 99 | 679.9 |
| 20260904064541 | 66 | 124 | 1.0 | 2.0 | 0.00 | 0.30 | 0.00 | 99 | 679.9 |
| 20260904063508 | 66 | 123 | 2.0 | 3.0 | 0.00 | 0.30 | 0.00 | 99 | 679.9 |
| 20260904062539 | 67 | 128 | 1.0 | 2.0 | 0.00 | 0.30 | 0.00 | 99 | 679.9 |
| 20260904061523 | 67 | 125 | 1.0 | 2.0 | 0.00 | 0.30 | 0.00 | 99 | 679.9 |
| 20260904060523 | 67 | 134 | 1.0 | 2.0 | 0.00 | 0.30 | 0.00 | 99 | 679.9 |
| 20260904055544 | 67 | 141 | 1.0 | 3.0 | 0.00 | 0.30 | 0.00 | 99 | 679.9 |
| 20260904054524 | 67 | 137 | 1.0 | 3.0 | 0.00 | 0.30 | 0.00 | 99 | 679.9 |
| 20260904053544 | 68 | 137 | 1.0 | 3.0 | 0.00 | 0.30 | 0.00 | 99 | 679.9 |
| 20260904052526 | 68 | 119 | 2.0 | 5.0 | 0.00 | 0.30 | 0.00 | 99 | 679.9 |
| 20260904051556 | 68 | 133 | 2.0 | 3.0 | 0.00 | 0.30 | 0.00 | 99 | 679.9 |
| 20260904050509 | 68 | 132 | 1.0 | 3.0 | 0.00 | 0.30 | 0.00 | 99 | 679.9 |
| 20260904045524 | 68 | 116 | 2.0 | 4.0 | 0.00 | 0.30 | 0.00 | 99 | 679.9 |
| 20260904044525 | 68 | 124 | 2.0 | 4.0 | 0.00 | 0.30 | 0.00 | 99 | 679.9 |
| 20260904043525 | 68 | 133 | 1.0 | 4.0 | 0.00 | 0.30 | 0.00 | 99 | 679.9 |
| 20260904042525 | 68 | 122 | 1.0 | 5.0 | 0.00 | 0.30 | 0.00 | 99 | 679.9 |
| 20260904041526 | 68 | 123 | 1.0 | 2.0 | 0.00 | 0.30 | 0.00 | 99 | 679.9 |
| 20260904040525 | 68 | 116 | 1.0 | 2.0 | 0.00 | 0.30 | 0.00 | 99 | 679.9 |
| 20260904035545 | 69 | 124 | 1.0 | 3.0 | 0.00 | 0.30 | 0.30 | 99 | 679.9 |
| 20260904034526 | 69 | 132 | 1.0 | 2.0 | 0.00 | 0.30 | 0.30 | 99 | 679.9 |
| 20260904033526 | 69 | 129 | 1.0 | 2.0 | 0.00 | 0.30 | 0.30 | 99 | 679.9 |
| 20260904032546 | 69 | 129 | 1.0 | 3.0 | 0.00 | 0.30 | 0.30 | 99 | 679.9 |
| 20260904031526 | 69 | 124 | 2.0 | 3.0 | 0.00 | 0.30 | 0.30 | 99 | 679.9 |
| 20260904030534 | 69 | 126 | 1.0 | 3.0 | 0.00 | 0.30 | 0.30 | 99 | 679.9 |
| 20260904025526 | 69 | 120 | 2.0 | 3.0 | 0.00 | 0.30 | 0.30 | 99 | 679.9 |
| 20260904024526 | 69 | 129 | 1.0 | 2.0 | 0.00 | 0.30 | 0.30 | 99 | 679.9 |
| 20260904023512 | 69 | 118 | 2.0 | 3.0 | 0.00 | 0.30 | 0.30 | 99 | 679.9 |
| 20260904022511 | 69 | 0.0 | 0.0 | 0.00 | 0.30 | 0.30 | 99 | 679.9 | |
| 20260904021512 | 69 | 0.0 | 0.0 | 0.00 | 0.30 | 0.30 | 99 | 679.9 | |
| 20260904020527 | 69 | 138 | 1.0 | 2.0 | 0.00 | 0.30 | 0.30 | 99 | 679.9 |
| 20260904015512 | 70 | 82 | 0.0 | 2.0 | 0.00 | 0.34 | 0.30 | 99 | 679.9 |
| 20260904014532 | 70 | 75 | 1.0 | 3.0 | 0.00 | 0.45 | 0.30 | 99 | 679.9 |
| 20260904013512 | 70 | 80 | 1.0 | 3.0 | 0.00 | 0.54 | 0.30 | 99 | 679.9 |
| 20260904012527 | 70 | 68 | 1.0 | 2.0 | 0.00 | 0.54 | 0.30 | 99 | 679.9 |
| 20260904011527 | 70 | 87 | 2.0 | 3.0 | 0.00 | 0.65 | 0.30 | 99 | 679.9 |
| 20260904010554 | 70 | 112 | 1.0 | 2.0 | 0.00 | 0.65 | 0.30 | 99 | 679.9 |
| 20260904005548 | 70 | 92 | 1.0 | 2.0 | 0.00 | 0.65 | 0.30 | 99 | 679.9 |
| 20260904004528 | 70 | 59 | 1.0 | 3.0 | 0.00 | 0.65 | 0.30 | 99 | 679.9 |
| 20260904003528 | 70 | 18 | 2.0 | 3.0 | 0.00 | 0.65 | 0.30 | 99 | 679.9 |
| 20260904002550 | 71 | 0.0 | 0.0 | 0.00 | 0.65 | 0.30 | 99 | 680.0 | |
| 20260904001548 | 71 | 138 | 1.0 | 3.0 | 0.00 | 0.66 | 0.30 | 99 | 680.0 |
| 20260904000528 | 71 | 149 | 1.0 | 2.0 | 0.00 | 0.67 | 0.30 | 99 | 680.0 |
| 20260903235554 | 71 | 127 | 1.0 | 2.0 | 0.00 | 0.70 | 0.30 | 99 | 680.0 |
| 20260903234549 | 71 | 145 | 1.0 | 3.0 | 0.00 | 0.70 | 0.30 | 99 | 680.0 |
| 20260903233528 | 71 | 79 | 0.0 | 2.0 | 0.00 | 0.70 | 0.30 | 99 | 680.0 |
| 20260903232443 | 72 | 137 | 1.0 | 2.0 | 0.00 | 0.70 | 0.30 | 99 | 680.0 |
| 20260903231514 | 72 | 125 | 1.0 | 2.0 | 0.00 | 0.70 | 0.30 | 99 | 680.0 |
| 20260903230529 | 72 | 140 | 0.0 | 2.0 | 0.00 | 0.70 | 0.30 | 99 | 680.0 |
| 20260903225445 | 72 | 220 | 2.0 | 4.0 | 0.01 | 0.70 | 0.30 | 99 | 680.0 |
| 20260903224514 | 72 | 235 | 2.0 | 5.0 | 0.02 | 0.70 | 0.30 | 99 | 680.0 |
| 20260903223529 | 72 | 196 | 1.0 | 2.0 | 0.03 | 0.70 | 0.30 | 99 | 680.0 |
| 20260903222550 | 73 | 169 | 2.0 | 3.0 | 0.06 | 0.70 | 0.30 | 99 | 680.0 |
| 20260903221515 | 73 | 34 | 2.0 | 4.0 | 0.13 | 0.70 | 0.30 | 99 | 680.0 |
| 20260903220515 | 73 | 13 | 2.0 | 4.0 | 0.17 | 0.70 | 0.30 | 99 | 680.0 |
| 20260903215602 | 73 | 98 | 2.0 | 5.0 | 0.18 | 0.75 | 0.30 | 99 | 680.0 |
| 20260903214446 | 74 | 109 | 2.0 | 4.0 | 0.21 | 1.16 | 0.28 | 99 | 680.0 |
| 20260903213516 | 74 | 115 | 3.0 | 5.0 | 0.24 | 1.47 | 0.27 | 99 | 680.1 |
| 20260903212535 | 75 | 147 | 1.0 | 3.0 | 0.23 | 1.52 | 0.24 | 99 | 680.1 |
| 20260903211516 | 75 | 122 | 2.0 | 5.0 | 0.17 | 1.45 | 0.17 | 99 | 680.1 |
| 20260903210516 | 76 | 135 | 2.0 | 4.0 | 0.13 | 1.40 | 0.13 | 99 | 680.1 |
| 20260903205516 | 76 | 132 | 3.0 | 6.0 | 0.11 | 1.39 | 0.11 | 99 | 680.1 |
| 20260903204536 | 77 | 129 | 4.0 | 6.0 | 0.07 | 1.35 | 0.07 | 99 | 680.1 |
| 20260903203516 | 78 | 143 | 2.0 | 4.0 | 0.03 | 1.31 | 0.03 | 99 | 680.1 |
| 20260903202450 | 78 | 111 | 2.0 | 3.0 | 0.01 | 1.29 | 0.01 | 99 | 680.2 |
| 20260903201516 | 79 | 124 | 1.0 | 3.0 | 0.00 | 1.38 | 0.00 | 99 | 680.2 |